Timeline UpdatesTrip UpdatesNews PostsPvt PostsTravel TipsAdmin PostsConv PostsFollowed PostsChat RequestsBlog PostsPNR Posts

Disclaimer
Search
 
 
Wed Sep 3, 2014 05:16:23 ISTHomeTrainsΣChainsAtlasPNRForumGalleryNewsFAQTripsMembersLoginFeedback
No Recent News for this Train
Other Trains in the News **new
Latest...
.
Wed May 15, 2013 (12:03AM)
⇐ Return Journey: Train# 59439

59440/Ahmedabad - Mumbai Central Passenger

Time-Table HAS CHANGED.
Yesterday (11:09PM)
Change Departure Station:
Change Arrival Station:
Post a Train Travel TipPost a Train Travel Tip **new
Post a Comment/Question/Picture/VideoPost a Comment/Question/Picture/Video
Pantry/Catering
✕ NO Pantry Car
✕ NO Catering
RSA - Rake Sharing
59439,59440,59441 and 59442 all share rakes.
Rake/Coach Composition
Loco
BL WCAM-1/BRC WAG-5A
News    PNR    Forum    Time-Table    Availability    Fare Chart    Map    Arr/Dep History    Trips    Gallery    ΣChains    X/O    Timeline    
Travel Time: 12h 23m    51 halts    Distance: 373 km    Avg Speed: 30 km/hr
Type: Passenger
Zone: WR/Western
Departs @ 23:00
Platform# 2
SMTWTFS
Ahmedabad Junction/ADI 
Arrives @ 11:23 +1 night
Platform# ???
SMTWTFS
Dahanu Road/DRD 

51 halts. 72 intermediate Stations between Ahmedabad Junction and Dahanu Road

Hide intermediate Stations  Show Old Time-Table

#CodeStation NameX/OArrivesAvgDepartsAvgHaltPFDay#KmSpeedElevZoneAddress
1ADI»Ahmedabad Junction (12)»  -23:00-210.02451mWRAhmedabad, Gujarat
1.1KKFKankaria  23:05-23:05-  11.8 2448mWRAhmedabad, Gujarat
2MANManinagar (2)X  23:10 23:08-23:12 23:10-2m213.25850mWRAhmadabad, Gujarat
3VTAVatva (4)X  23:17 23:15-23:19 23:17-2m--18.02549mWRDist. Ahmedabad 382445, Gujarat
3.1GERGeratpur (2)XO  23:30-23:30-  113.3 2544mWRAhmadabad, Gujarat
4BJDBarejadi Nandej (3)  23:40 23:38-23:41 23:40-1 2m--116.65242mWRBareja-Barejadi Rd, Gujarat
5KANJKanij (3)  23:47 23:45-23:48 23:47-1 2m--121.01239mWRBareja-Barejadi Rd, Gujarat
6NEPNenpur (2)O  00:02 00:01-00:03 00:02-1m--223.85035mWRState Highway 3, Gujarat
7MHDMahemdavad Kheda Road (4)X  00:09 00:07-00:10 00:09-1 2m--228.03837mWRMahemdavad, Gujarat
8GTEGothaj (2)X  00:24 00:22-00:26 00:24-2m--236.35032mWRState Highway 3, Gujarat
9NDNadiad Junction (4)X  00:35-00:39-4m--245.67337mWRNadiad, Gujarat
9.1UTDUtarsanda (4)X  00:44-00:44-  251.1 7340mWRUttarsanda, Gujarat
10KBRVKanjari Boriyavi Junction (4)XO  00:50 00:48-00:52 00:50-2m--256.61839mWRKanjari, Gujarat
11ANNDAnand Junction (6)  01:15-01:20-5m--264.06944mWRAnand, Gujarat
12VXDVadod (3)X  01:28 01:26-01:29 01:28-1 2m--270.94144mWRAnand District, Gujarat
13ADDAdas Road (4)X  01:36 01:34-01:37 01:36-1 2m--274.94642mWRNational Highway 8, Gujarat
14VDAVasad Junction (3)  01:44 01:42-01:46 01:44-2m--279.66940mWRVasad, Gujarat
14.1NDRNandesari (2)  01:48-01:48-  284.6 6942mWRNandesari, Gujarat
15RNORanoli (2)X  01:54 01:52-01:55 01:54-1 2m--288.72339mWRVadodara District, Gujarat
15.1KRCAKarachiya Yard  01:59-01:59-  290.5 2339mWRVadodara, Gujarat
16BJWBajva (3)X  02:06 02:04-02:07 02:06-1 2m--292.51638mWRVadodara, Gujarat
16.1BRGYVadodara D Cabin  02:31-02:31-  299.1 1636mWRVadodara, Gujarat
17BRCVadodara Junction (7)X  02:33-02:38-5m--299.87336mWRVadodara 390005, Gujarat
17.1VSVishvamitri (4)X  02:40-02:40-  2102.7 7330mWRVadodara, Gujarat
17.2MPRMakarpura (4)X  02:45-02:45-  2108.5 7330mWRVadodara, Gujarat
17.3VRMVarnama (2)  02:50-02:50-  2114.1 7328mWRVadodara, Gujarat
18ITAItola (4)  02:55 02:53-02:56 02:55-1 2m--2118.07727mWRNational Highway 8 Vadodara, Gujarat
18.1KSPRKashipura Sarar (2)X  02:58-02:58-  2121.8 7726mWRGIDC Industrial Area, Gujarat
19MYGMiyagam Karjan (2)  03:06 03:04-03:08 03:06-2m--2129.67029mWRKarjan, Gujarat
19.1MYGLMiyagam Karjan Junction NGX  03:06-03:06-  2129.6 700mWRKarjan, Gujarat
19.2LKDLakodara (4)X  03:13-03:13-  2137.6 7026mWRNH 8, Gujarat
20PLJPalej (4)XO  03:21 03:19-03:23 03:21-2m--2144.94529mWRPalej, Gujarat
20.1VREVarediya (4)XO  03:30-03:30-  2151.5 4521mWRNH 8, Gujarat
20.2NIUNabipur (3)X  03:58 03:39-03:59 03:39-  2158.2 4524mWRNabipur, Gujarat
20.3CVJChavaj (2)X  03:48-03:48-  2165.3 4520mWRBharuch, Gujarat
21BHBharuch Junction (5)XO  04:15 03:55-04:20 04:13-5 18m42170.38019mWRBharuch, Gujarat
22AKVAnkleshwar Junction (4)X  04:39 04:20-04:41 04:22-2m22179.66219mWRAnkleshwar, Gujarat
22.1SNJLSanjali (2)  04:28-04:28-  2185.7 6223mWRSanjali, Gujarat
23PAOPanoli (3)X  04:50 04:32-04:52 04:33-2 1m--2189.92329mWRPanoli, Gujarat
24HATHathuran (2)  04:58 04:43-05:00 04:44-2 1m--2193.85232mWRKosamba, Gujarat
25KSBKosamba Junction (3)X  05:05 04:49-05:07 04:51-2m--2198.15230mWRKosamba, Gujarat
26KIMKim (2)XO  05:16 05:00-05:18 05:02-2m--2205.91818mWRNH 8, Gujarat
26.1KDSDKudsad (2)X  05:34 05:12-05:36 05:12-  2208.7 1818mWRNH 8, Gujarat
27SYNSayan (3)X  05:42 05:36-05:44 05:38-2m--2215.91421mWRSayan Satellite town, Gujarat
28GTXGothangam (2)O  05:58 05:51-06:00 05:53-2m--2218.81219mWRAmroli Sayan Rd, Gujarat
29KSEKosad (2)O  06:06 06:11-06:08 06:13-2m--2222.52417mWRSurat, Gujarat
30URNUtran (3)XO  06:23 06:21-06:25 06:23-2m--2225.7715mWRSurat, Gujarat
31STSurat (4)XOO  06:55-07:15-20m32229.64019mWRSurat 395001, Gujarat
32UDNUdhna Junction (3)X  07:21-07:23-2m22233.64816mWRUdhna 394210, Gujarat
33BHETBhestan (2)O  07:31 07:29-07:32 07:31-1 2m22238.46813mWRSurat, Gujarat
34SCHSachin (3)O  07:38 07:36-07:40 07:38-2m--2244.15711mWRKansad Road Sachin, Gujarat
35MRLMaroli (3)XO  07:46 07:45-07:48 07:47-2m--2250.73015mWRMaroli, Gujarat
36NVSNavsari (3)O  08:05 08:04-08:06-1 2m--2259.25614mWRNavsari, Gujarat
36.1GNSTGandhi Smriti (2)  08:09-08:09-  2262.2 5616mWRGandhi Smriti Navsari, Gujarat
36.2HXRHansapore (2)X  08:11-08:11-  2263.8 5615mWRHansapore, Gujarat
37VDHVedchha (3)X  08:16 08:15-08:17-1 2m--2267.65113mWRNavsari, Gujarat
38ACLAncheli (2)X  08:21-08:23-2m--2271.05720mWRNavsari, Gujarat
39AMLAmalsad (3)  08:27-08:29-2m--2274.85612mWRAmalsad, Gujarat
40BIMBilimora Junction (4)  08:35-08:37-2m--2280.34711mWRBilimora, Gujarat
41JRSJoravasan (2)O  08:42-08:44-2m--2284.37615mWRJoravasan, Gujarat
42DGIDungri (3)XO  08:48-08:50-2m--2289.42120mWRNH 8, Gujarat
43BLValsad (3)X  09:15-09:20-5m--2298.38015mWRValsad, Gujarat
44ATULAtul (3)  09:25-09:27-2m--2305.06022mWRValsad, Gujarat
45PADPardi (3)  09:31-09:33-2m--2308.94519mWRValsad, Gujarat
46UVDUdvada (3)XO  09:41-09:43-2m--2314.92518mWRUdvada, Gujarat
46.1BAGDBagwada (2)  09:49 09:50-09:51 09:50-  2317.8 2522mWRNH8, Gujarat
47VAPIVapi (3)X  10:06-10:08-2m--2324.54827mWRVapi, Gujarat
48KEBKarambeli (2)XO  10:16-10:18-2m--2331.04829mWRNational Highway 8, Gujarat
49BLDBhilad (3)X  10:24-10:26-2m--2335.86933mWRBhilad, Gujarat
50SJNSanjan (3)X  10:36-10:38-2m--2347.45422mWRSanjan, Gujarat
51UBRUmbargam Road (3)  10:44-10:46-2m32352.73230mWRUmbergaon, Gujarat
51.1BRRDBordi Road (2)XO  10:54-10:54-  2357.0 3217mWRBordi, Maharashtra
52GVDGholvad (4)  11:03-11:05-2m--2361.93714mWRGholvad, Maharashtra
53DRD•Dahanu Road (5)•  11:22 11:23-11:25-3 2m--2373.05712mWRDahanu, Maharashtra
54VGNVangaon (3)X  11:38-11:40-2m--2385.36311mWRDist. Palghar, Maharashtra
55BORBoisar (3)X  11:49-11:51-2m32394.73817mWRBoisar Tel.no-02525-266626, Maharashtra
55.1UOIUmroli (2)X  11:59-11:59-  2399.6 388mWRBoisar, Maharashtra
56PLGPalghar (3)O  12:09-12:11-2m--2406.05619mWRPalghar, Maharashtra
57KLVKelve Road (3)X  12:20-12:22-2m--2414.46410mWRDist. Palghar, Maharashtra
58SAHSaphale (2)  12:28-12:30-2m22420.8588mWRDist. Palghar, Maharashtra
59VTNVaitarna (2)XO  12:38-12:40-2m22428.6133mWRDist. Palghar, Maharashtra
60VRVirar (8)X  13:20 13:18-13:28 13:20-8 2m42437.1286mWRDist. Palghar, Maharashtra
60.1NSPNallasopara (4)X  13:29-13:29-  2441.4 285mWRNallasopara station Rd, Maharashtra
61BSRVasai Road (7)XO  13:36 13:38-13:38 13:40-2m52445.6427mWRVasai 401202, Maharashtra
61.1NIGNaigaon (4)X  13:45-13:45-  2449.3 425mWRNaigaon West, Maharashtra
61.2BYRBhayandar (6)  13:52-13:52-  2454.0 426mWRThane, Maharashtra
61.3MIRAMira Road (4)  13:57-13:57-  2457.2 423mWRMira Bhayandar, Maharashtra
61.4DICDahisar (4)X  14:02-14:02-  2460.7 4214mWRMumbai, Maharashtra
62BVIMumbai Borivali (8)X  14:05-14:13 -62463.0-19mWRMumbai - 400092, Maharashtra
Scroll to Top
Scroll to Bottom